Weather in Khutor-Bor

Russia / Bryansk Oblast     53°06′39″N   34°14′09″E
temp.,
°C
wind,
m/s
gust,
m/s
humid.,
%
clouds,
%
prec.,
mm/h
press.,
hPa
HPBL,
m
26 september, sun
sun2600:00+11w51195100 0.3 1007819
03:00+11wnw51193100 0.3 1008776
06:00+9nw51085100 0.1 10101014
09:00+9nw51086100 0.1 10111021
12:00+11nw5107493 0.1 10131258
15:00+11nw6107567 0.5 10141147
18:00+10nnw6118131 0.4 10151103
21:00+8nw4129024 0.4 1017673
27 september, mon
mon2700:00+9nnw4981100 0.0 1018946
03:00+6nnw4119558 0.0 1019530
06:00+8nnw3883100 0.0 1020750
09:00+9n498583 0.0 1021650
12:00+11nne4676100 0.3 1022973
15:00+12n3672100 0.9 1022984
18:00+10nne387974 0.1 1023569
21:00+7n279680 0.1 1024168
28 september, tue
tue2800:00+8n3892100 0.1 1024304
03:00+6n279896 0.1 1025236
06:00+8nne389499 0.0 1025432
09:00+8ne3891100 0.1 1026693
12:00+9ene467899 0.1 10271018
15:00+8ene3678100 0.2 1029765
18:00+7ene3781100 0.1 1030649
21:00+7ene3883100 0.1 1032560
29 september, wed
wed2900:00+6ene3879100 0.0 1033596
03:00+6ne2678100 0.0 1033235
06:00+3ne26875 0.0 1035135
09:00+6ene35705 0.0 1035324
12:00+10ene34535 0.0 10351161
15:00+12ene23465 0.0 10341321
18:00+8ne22665 0.0 103415
21:00+5ene22779 0.0 103514
30 september, thu
thu3000:00+4ene117872 0.0 103610
03:00+3ene118047 0.0 103610
06:00+2ene118371 0.0 103610
09:00+6e1268100 0.0 1037178
12:00+10ese1252100 0.0 1036722
15:00+12ese124885 0.0 10361176
18:00+8ese11685 0.0 103610
21:00+6ese11765 0.0 103610